�������l�o���
Date,Time,MP-1(��Sv/h),MP-2(��Sv/h),MP-3(��Sv/h),MP-4(��Sv/h),MP-5(��Sv/h),MP-6(��Sv/h),MP-7(��Sv/h),MP-8(��Sv/h),����,����(m/s),���J
2018/01/12,00:00,0.883,1.478,0.927,1.759,1.181,0.489,0.875,0.840,�k�k��,7.7,��
2018/01/12,00:10,0.883,1.480,0.925,1.757,1.183,0.489,0.875,0.840,�k�k��,7.7,��
2018/01/12,00:20,0.882,1.478,0.924,1.757,1.184,0.488,0.874,0.840,�k�k��,7.1,��
2018/01/12,00:30,0.884,1.477,0.925,1.757,1.184,0.489,0.877,0.840,�k�k��,7.5,��
2018/01/12,00:40,0.883,1.477,0.926,1.753,1.179,0.488,0.876,0.839,�k�k��,7.9,��
2018/01/12,00:50,0.884,1.478,0.925,1.759,1.181,0.487,0.875,0.839,�k�k��,7.5,��
2018/01/12,01:00,0.884,1.476,0.925,1.756,1.182,0.489,0.876,0.839,�k�k��,7.1,��
2018/01/12,01:10,0.882,1.478,0.928,1.759,1.183,0.488,0.875,0.840,�k�k��,7.3,��
2018/01/12,01:20,0.884,1.477,0.925,1.759,1.183,0.488,0.875,0.839,�k�k��,7.3,��
2018/01/12,01:30,0.882,1.478,0.924,1.758,1.182,0.489,0.875,0.841,�k�k��,7.4,��
2018/01/12,01:40,0.882,1.476,0.927,1.758,1.181,0.490,0.875,0.840,�k�k��,7.6,��
2018/01/12,01:50,0.880,1.479,0.926,1.753,1.181,0.488,0.877,0.839,�k�k��,8.3,��
2018/01/12,02:00,0.882,1.478,0.925,1.753,1.182,0.488,0.875,0.840,�k�k��,8.2,��
2018/01/12,02:10,0.882,1.475,0.927,1.757,1.183,0.487,0.875,0.839,�k�k��,7.8,��
2018/01/12,02:20,0.882,1.476,0.924,1.756,1.181,0.489,0.876,0.840,�k��,8.4,��
2018/01/12,02:30,0.881,1.475,0.926,1.757,1.182,0.489,0.875,0.840,�k��,8.1,��
2018/01/12,02:40,0.884,1.479,0.927,1.757,1.182,0.489,0.874,0.840,�k��,7.7,��
2018/01/12,02:50,0.882,1.476,0.925,1.760,1.183,0.488,0.875,0.840,�k��,7.1,��
2018/01/12,03:00,0.882,1.476,0.924,1.756,1.180,0.489,0.877,0.839,�k��,6.4,��
2018/01/12,03:10,0.883,1.477,0.926,1.755,1.180,0.489,0.875,0.839,�k��,6.5,��
2018/01/12,03:20,0.881,1.478,0.926,1.759,1.182,0.489,0.874,0.840,�k��,6.4,��
2018/01/12,03:30,0.883,1.477,0.926,1.756,1.180,0.491,0.875,0.838,�k��,5.9,��
2018/01/12,03:40,0.883,1.477,0.927,1.752,1.181,0.488,0.876,0.840,�k��,6.9,��
2018/01/12,03:50,0.882,1.476,0.925,1.757,1.182,0.487,0.875,0.839,�k��,6.8,��
2018/01/12,04:00,0.881,1.478,0.925,1.757,1.181,0.489,0.874,0.838,�k��,6.4,��
2018/01/12,04:10,0.881,1.475,0.924,1.757,1.179,0.488,0.874,0.840,�k��,6.4,��
2018/01/12,04:20,0.880,1.475,0.925,1.754,1.181,0.489,0.874,0.839,�k��,6.3,��
2018/01/12,04:30,0.880,1.474,0.926,1.757,1.181,0.488,0.873,0.840,�k��,6.1,��
2018/01/12,04:40,0.882,1.478,0.927,1.754,1.178,0.488,0.874,0.838,�k��,5.9,��
2018/01/12,04:50,0.879,1.476,0.922,1.754,1.180,0.489,0.875,0.839,�k��,5.3,��
2018/01/12,05:00,0.882,1.474,0.926,1.755,1.177,0.488,0.875,0.839,�k��,5.2,��
2018/01/12,05:10,0.881,1.477,0.926,1.755,1.180,0.489,0.874,0.840,�k��,4.5,��
2018/01/12,05:20,0.884,1.475,0.922,1.756,1.176,0.487,0.877,0.840,���k��,4.5,��
2018/01/12,05:30,0.881,1.473,0.926,1.755,1.177,0.488,0.875,0.840,���k��,6.1,��
2018/01/12,05:40,0.881,1.474,0.927,1.753,1.177,0.488,0.873,0.840,���k��,5.6,��
2018/01/12,05:50,0.880,1.478,0.924,1.756,1.179,0.487,0.874,0.839,���k��,4.8,��
2018/01/12,06:00,0.879,1.476,0.923,1.752,1.178,0.487,0.874,0.838,���k��,5.6,��
2018/01/12,06:10,0.881,1.476,0.924,1.754,1.180,0.487,0.874,0.840,���k��,5.5,��
2018/01/12,06:20,0.881,1.473,0.924,1.754,1.180,0.487,0.874,0.840,���k��,5.8,��
2018/01/12,06:30,0.880,1.476,0.924,1.752,1.177,0.487,0.875,0.839,�k��,6.0,��
2018/01/12,06:40,0.881,1.477,0.924,1.753,1.179,0.487,0.875,0.838,�k��,6.1,��
2018/01/12,06:50,0.879,1.476,0.923,1.756,1.179,0.486,0.874,0.839,���k��,5.9,��
2018/01/12,07:00,0.878,1.473,0.923,1.753,1.178,0.486,0.874,0.839,���k��,5.2,��
2018/01/12,07:10,0.879,1.470,0.926,1.753,1.177,0.486,0.874,0.840,���k��,5.5,��
2018/01/12,07:20,0.881,1.476,0.924,1.754,1.178,0.487,0.873,0.840,�k��,6.7,��
2018/01/12,07:30,0.881,1.475,0.924,1.756,1.177,0.487,0.874,0.839,�k��,6.2,��
2018/01/12,07:40,0.882,1.476,0.924,1.754,1.178,0.488,0.874,0.839,�k��,5.4,��
2018/01/12,07:50,0.880,1.474,0.925,1.756,1.176,0.488,0.876,0.839,�k��,6.3,��
2018/01/12,08:00,0.880,1.476,0.924,1.755,1.179,0.487,0.875,0.839,�k��,5.9,��
2018/01/12,08:10,0.883,1.474,0.924,1.754,1.177,0.486,0.873,0.839,�k��,5.7,��
2018/01/12,08:20,0.882,1.474,0.926,1.755,1.181,0.487,0.875,0.840,���k��,6.0,��
2018/01/12,08:30,0.880,1.476,0.925,1.755,1.179,0.488,0.876,0.841,���k��,5.4,��
2018/01/12,08:40,0.883,1.475,0.926,1.758,1.182,0.488,0.876,0.839,���k��,4.9,��
2018/01/12,08:50,0.879,1.476,0.927,1.754,1.180,0.487,0.877,0.840,�k��,4.3,��
2018/01/12,09:00,0.883,1.477,0.924,1.757,1.181,0.487,0.875,0.841,�k��,4.8,��
2018/01/12,09:10,0.885,1.476,0.927,1.754,1.180,0.487,0.874,0.840,���k��,3.3,��
2018/01/12,09:20,0.884,1.473,0.926,1.754,1.179,0.488,0.877,0.840,�k��,3.4,��
2018/01/12,09:30,0.883,1.474,0.927,1.754,1.180,0.487,0.876,0.839,�k�k��,3.8,��
2018/01/12,09:40,0.883,1.476,0.927,1.756,1.181,0.487,0.874,0.839,�k�k��,3.2,��
2018/01/12,09:50,0.885,1.477,0.925,1.756,1.181,0.487,0.878,0.839,�k��,2.3,��
2018/01/12,10:00,0.886,1.479,0.926,1.754,1.182,0.488,0.877,0.839,�k��,2.3,��
2018/01/12,10:10,0.887,1.476,0.925,1.757,1.180,0.488,0.874,0.840,�k�k��,4.4,��
2018/01/12,10:20,0.886,1.477,0.928,1.758,1.181,0.489,0.877,0.842,�k��,3.9,��
2018/01/12,10:30,0.885,1.476,0.928,1.758,1.183,0.489,0.876,0.840,�k��,4.3,��
2018/01/12,10:40,0.884,1.476,0.927,1.755,1.182,0.490,0.876,0.842,�k�k��,4.2,��
2018/01/12,10:50,0.885,1.475,0.931,1.760,1.183,0.488,0.874,0.840,�k�k��,3.3,��
2018/01/12,11:00,0.886,1.472,0.926,1.757,1.183,0.487,0.875,0.840,�k�k��,2.3,��
2018/01/12,11:10,0.885,1.473,0.927,1.758,1.185,0.488,0.875,0.839,�k��,3.0,��
2018/01/12,11:20,0.886,1.473,0.929,1.760,1.184,0.490,0.878,0.839,�k�k��,3.2,��
2018/01/12,11:30,0.886,1.478,0.927,1.761,1.185,0.487,0.877,0.841,���k��,3.4,��
2018/01/12,11:40,0.885,1.474,0.927,1.759,1.183,0.490,0.877,0.840,�k��,4.4,��
2018/01/12,11:50,0.886,1.474,0.927,1.759,1.186,0.488,0.876,0.843,���k��,4.2,��
2018/01/12,12:00,0.885,1.476,0.928,1.759,1.184,0.488,0.876,0.843,���k��,3.9,��
2018/01/12,12:10,0.887,1.477,0.928,1.759,1.188,0.489,0.877,0.844,���k��,3.2,��
2018/01/12,12:20,0.886,1.477,0.929,1.760,1.186,0.488,0.877,0.840,���k��,4.6,��
2018/01/12,12:30,0.888,1.478,0.926,1.760,1.185,0.488,0.878,0.840,���k��,4.1,��
2018/01/12,12:40,0.888,1.478,0.927,1.760,1.187,0.488,0.877,0.842,���k��,3.9,��
2018/01/12,12:50,0.886,1.478,0.931,1.759,1.190,0.488,0.877,0.841,���k��,4.4,��
2018/01/12,13:00,0.887,1.479,0.933,1.761,1.186,0.488,0.877,0.842,���k��,4.4,��
2018/01/12,13:10,0.887,1.479,0.928,1.758,1.187,0.490,0.877,0.843,��,4.6,��
2018/01/12,13:20,0.889,1.479,0.929,1.763,1.188,0.488,0.875,0.841,���k��,4.5,��
2018/01/12,13:30,0.887,1.479,0.928,1.759,1.190,0.490,0.876,0.839,��,4.0,��
2018/01/12,13:40,0.888,1.477,0.929,1.761,1.187,0.489,0.877,0.842,���k��,3.3,��
2018/01/12,13:50,0.887,1.474,0.929,1.761,1.189,0.490,0.878,0.841,���k��,2.6,��
2018/01/12,14:00,0.888,1.478,0.929,1.760,1.188,0.489,0.878,0.841,�k��,1.5,��
2018/01/12,14:10,0.889,1.481,0.929,1.762,1.187,0.487,0.878,0.841,�k��,1.9,��
2018/01/12,14:20,0.889,1.481,0.926,1.759,1.188,0.490,0.876,0.839,�k��,2.0,��
2018/01/12,14:30,0.888,1.479,0.929,1.761,1.187,0.490,0.878,0.842,�k,1.4,��
2018/01/12,14:40,0.888,1.479,0.929,1.760,1.187,0.490,0.876,0.840,�k�k��,2.0,��
2018/01/12,14:50,0.889,1.480,0.929,1.760,1.187,0.489,0.877,0.842,�k,2.8,��
2018/01/12,15:00,0.887,1.483,0.930,1.763,1.186,0.490,0.878,0.841,�k�k��,2.9,��
2018/01/12,15:10,0.888,1.481,0.930,1.757,1.186,0.490,0.876,0.841,�k�k��,3.5,��
2018/01/12,15:20,0.887,1.482,0.929,1.758,1.190,0.490,0.876,0.841,�k�k��,3.5,��
2018/01/12,15:30,0.888,1.482,0.929,1.761,1.186,0.489,0.876,0.842,�k�k��,2.0,��
2018/01/12,15:40,0.886,1.481,0.929,1.759,1.187,0.489,0.876,0.842,�k��,2.3,��
2018/01/12,15:50,0.888,1.483,0.928,1.759,1.188,0.489,0.877,0.841,�k��,2.8,��
2018/01/12,16:00,0.885,1.480,0.929,1.759,1.186,0.489,0.875,0.841,�k��,2.9,��
2018/01/12,16:10,0.887,1.480,0.930,1.760,1.188,0.489,0.876,0.841,�k��,3.8,��
2018/01/12,16:20,0.886,1.482,0.928,1.761,1.188,0.489,0.876,0.840,�k�k��,4.9,��
2018/01/12,16:30,0.888,1.485,0.929,1.760,1.189,0.490,0.876,0.840,�k�k��,5.4,��
2018/01/12,16:40,0.886,1.481,0.931,1.760,1.189,0.489,0.876,0.841,�k��,5.5,��
2018/01/12,16:50,0.883,1.482,0.925,1.761,1.188,0.490,0.875,0.840,�k��,5.3,��
2018/01/12,17:00,0.884,1.481,0.927,1.756,1.185,0.489,0.877,0.841,�k�k��,4.7,��
2018/01/12,17:10,0.885,1.482,0.929,1.759,1.185,0.491,0.874,0.841,�k�k��,5.8,��
2018/01/12,17:20,0.883,1.482,0.928,1.757,1.185,0.489,0.876,0.840,�k�k��,5.7,��
2018/01/12,17:30,0.885,1.481,0.927,1.757,1.187,0.488,0.876,0.840,�k��,6.5,��
2018/01/12,17:40,0.885,1.481,0.928,1.759,1.186,0.489,0.875,0.839,�k��,7.5,��
2018/01/12,17:50,0.884,1.482,0.929,1.756,1.185,0.488,0.875,0.840,�k��,10.7,��
2018/01/12,18:00,0.883,1.480,0.930,1.758,1.185,0.488,0.876,0.839,�k��,7.5,��
2018/01/12,18:10,0.885,1.484,0.927,1.757,1.187,0.487,0.874,0.838,�k��,2.0,��
2018/01/12,18:20,0.886,1.484,0.930,1.760,1.186,0.488,0.875,0.839,�k��,2.3,��
2018/01/12,18:30,0.886,1.484,0.929,1.760,1.184,0.488,0.875,0.840,�k��,2.6,��
2018/01/12,18:40,0.887,1.479,0.928,1.756,1.186,0.488,0.875,0.841,�k��,4.5,��
2018/01/12,18:50,0.887,1.482,0.928,1.760,1.184,0.489,0.873,0.841,���k��,4.8,��
2018/01/12,19:00,0.887,1.482,0.926,1.756,1.186,0.488,0.875,0.838,���k��,5.1,��
2018/01/12,19:10,0.885,1.482,0.926,1.759,1.185,0.489,0.873,0.839,���k��,5.1,��
2018/01/12,19:20,0.885,1.484,0.927,1.757,1.186,0.489,0.875,0.839,���k��,4.7,��
2018/01/12,19:30,0.887,1.479,0.929,1.758,1.185,0.490,0.874,0.839,��,3.9,��
2018/01/12,19:40,0.889,1.483,0.928,1.758,1.187,0.488,0.873,0.839,��,4.9,��
2018/01/12,19:50,0.885,1.481,0.929,1.756,1.186,0.489,0.872,0.840,���k��,4.7,��
2018/01/12,20:00,0.886,1.483,0.928,1.758,1.184,0.488,0.875,0.840,���k��,5.6,��
2018/01/12,20:10,0.886,1.482,0.928,1.760,1.186,0.489,0.875,0.841,���k��,7.6,��
2018/01/12,20:20,0.887,1.480,0.928,1.758,1.184,0.487,0.874,0.840,���k��,7.2,��
2018/01/12,20:30,0.887,1.481,0.927,1.759,1.186,0.489,0.876,0.838,���k��,8.4,��
2018/01/12,20:40,0.884,1.482,0.928,1.758,1.186,0.489,0.874,0.839,���k��,6.4,��
2018/01/12,20:50,0.886,1.481,0.928,1.759,1.185,0.488,0.876,0.840,�k��,5.3,��
2018/01/12,21:00,0.885,1.480,0.926,1.755,1.184,0.489,0.875,0.840,�k��,6.4,��
2018/01/12,21:10,0.885,1.482,0.927,1.760,1.185,0.489,0.875,0.838,�k��,7.8,��
2018/01/12,21:20,0.888,1.482,0.928,1.758,1.187,0.488,0.874,0.840,�k��,6.0,��
2018/01/12,21:30,0.885,1.480,0.926,1.756,1.186,0.487,0.876,0.839,�k��,6.3,��
2018/01/12,21:40,0.885,1.478,0.927,1.758,1.185,0.489,0.876,0.841,�k��,7.4,��
2018/01/12,21:50,0.884,1.481,0.925,1.757,1.186,0.490,0.875,0.840,�k��,7.3,��
2018/01/12,22:00,0.885,1.482,0.927,1.757,1.184,0.488,0.875,0.839,�k�k��,4.8,��
2018/01/12,22:10,0.885,1.480,0.926,1.758,1.184,0.487,0.875,0.840,�k�k��,3.2,��
2018/01/12,22:20,0.883,1.480,0.926,1.756,1.184,0.488,0.874,0.839,�k�k��,3.4,��
2018/01/12,22:30,0.886,1.480,0.925,1.756,1.185,0.489,0.875,0.839,�k��,4.1,��
2018/01/12,22:40,0.884,1.478,0.927,1.760,1.184,0.487,0.875,0.840,�k�k��,4.4,��
2018/01/12,22:50,0.882,1.480,0.927,1.759,1.183,0.485,0.876,0.840,�k�k��,6.9,��
2018/01/12,23:00,0.885,1.479,0.927,1.759,1.186,0.487,0.876,0.840,�k��,6.2,��
2018/01/12,23:10,0.884,1.479,0.927,1.759,1.182,0.489,0.876,0.840,�k��,4.6,��
2018/01/12,23:20,0.885,1.482,0.927,1.755,1.182,0.487,0.874,0.839,�k��,4.0,��
2018/01/12,23:30,0.884,1.480,0.927,1.756,1.182,0.487,0.874,0.839,�k��,3.5,��
2018/01/12,23:40,0.883,1.478,0.924,1.756,1.183,0.488,0.873,0.839,�k��,3.5,��
2018/01/12,23:50,0.883,1.480,0.926,1.756,1.182,0.488,0.874,0.839,�k��,3.4,��
